WAT2286 RKSI-KSDF

Flight info

Callsign WAT2286
Flight time N/A
Altitude 31000
Route EGOBA2Y EGOBA Y697 KARBU G597 KAE Y437 TENAS L512 GTC R217 NODAN DCT NANNO DCT PUGAL/N0485F320 A590 POWAL/N0480F330 A590 PINTT/N0491F340 A590 PUGGY/N0491F330 R341 ODK/N0486F350 J123 CJAYY B757 GRIZZ DCT EEDEN DCT YYD DCT WASEN DCT WALSH/N0481F370 DCT KATEN DCT ISN DCT RWF J90 MCW DCT BDF DCT CYBIL JMONY2
Aircraft A346/H-SDE2E3FGHIJ3J4J5M1RWXY/LB1D1

Departure

Time N/A
Airport Incheon International Airport (RKSI)

Arrival

Time 2026-04-28 19:55
Airport Louisville Muhammad Ali International Airport (KSDF)
Time Latitude Longitude Altitude Speed Heading
2026-04-28 19:36 39.00190 -86.87998 20055 ft 413 kts 145°
2026-04-28 19:36 38.97957 -86.85822 20051 ft 392 kts 153°
2026-04-28 19:37 38.95638 -86.84092 19780 ft 380 kts 160°
2026-04-28 19:37 38.94069 -86.83120 19563 ft 376 kts 162°
2026-04-28 19:37 38.90918 -86.81266 19158 ft 369 kts 162°
2026-04-28 19:37 38.88600 -86.79908 18868 ft 364 kts 162°
2026-04-28 19:38 38.86317 -86.78557 18557 ft 359 kts 161°
2026-04-28 19:38 38.84068 -86.77216 18236 ft 354 kts 162°
2026-04-28 19:38 38.81845 -86.75880 17909 ft 350 kts 162°
2026-04-28 19:38 38.79656 -86.74571 17586 ft 345 kts 162°
2026-04-28 19:39 38.77488 -86.73277 17222 ft 342 kts 161°
2026-04-28 19:39 38.75336 -86.71991 16826 ft 340 kts 161°
2026-04-28 19:39 38.73199 -86.70712 16441 ft 339 kts 161°
2026-04-28 19:39 38.71071 -86.69435 16052 ft 337 kts 160°
2026-04-28 19:40 38.68949 -86.68157 15677 ft 335 kts 160°
2026-04-28 19:40 38.66843 -86.66888 15323 ft 334 kts 160°
2026-04-28 19:40 38.64746 -86.65626 14951 ft 332 kts 159°
2026-04-28 19:40 38.62661 -86.64371 14607 ft 331 kts 159°
2026-04-28 19:41 38.60585 -86.63123 14255 ft 329 kts 159°
2026-04-28 19:41 38.58542 -86.61809 13881 ft 330 kts 148°
2026-04-28 19:41 38.56973 -86.59668 13405 ft 335 kts 117°
2026-04-28 19:41 38.56356 -86.56836 13016 ft 331 kts 94°
2026-04-28 19:42 38.56190 -86.53917 12685 ft 327 kts 91°
2026-04-28 19:42 38.56041 -86.51026 12326 ft 325 kts 92°
2026-04-28 19:42 38.55924 -86.49120 12087 ft 324 kts 93°
2026-04-28 19:42 38.55722 -86.46259 11722 ft 322 kts 94°
2026-04-28 19:43 38.55492 -86.43396 11369 ft 320 kts 95°
2026-04-28 19:43 38.55247 -86.40572 11024 ft 318 kts 95°
2026-04-28 19:43 38.55001 -86.37766 10670 ft 316 kts 95°
2026-04-28 19:43 38.54756 -86.34980 10319 ft 314 kts 95°
2026-04-28 19:44 38.54513 -86.32206 9977 ft 313 kts 95°
2026-04-28 19:44 38.54273 -86.29457 9636 ft 310 kts 95°
2026-04-28 19:44 38.54035 -86.26722 9235 ft 308 kts 95°
2026-04-28 19:44 38.53798 -86.23997 8763 ft 307 kts 96°
2026-04-28 19:45 38.53559 -86.21288 8334 ft 306 kts 96°
2026-04-28 19:45 38.53321 -86.18589 7967 ft 305 kts 96°
2026-04-28 19:45 38.53082 -86.15900 7619 ft 304 kts 97°
2026-04-28 19:45 38.52843 -86.13226 7298 ft 301 kts 97°
2026-04-28 19:46 38.52607 -86.10577 6987 ft 299 kts 97°
2026-04-28 19:46 38.52372 -86.07946 6688 ft 296 kts 97°
2026-04-28 19:46 38.52138 -86.05340 6394 ft 294 kts 97°
2026-04-28 19:46 38.51904 -86.02758 6100 ft 291 kts 97°
2026-04-28 19:47 38.51681 -86.00229 5998 ft 287 kts 97°
2026-04-28 19:47 38.51472 -85.97717 5985 ft 272 kts 97°
2026-04-28 19:47 38.51274 -85.95363 5977 ft 264 kts 97°
2026-04-28 19:47 38.51078 -85.93062 5989 ft 264 kts 97°
2026-04-28 19:48 38.50881 -85.90726 5988 ft 265 kts 97°
2026-04-28 19:48 38.50515 -85.88438 5961 ft 262 kts 118°
2026-04-28 19:48 38.49428 -85.86638 5982 ft 254 kts 145°
2026-04-28 19:48 38.48013 -85.85283 5999 ft 254 kts 150°
2026-04-28 19:49 38.46481 -85.84212 5950 ft 249 kts 162°
2026-04-28 19:49 38.44870 -85.83506 5714 ft 242 kts 168°
2026-04-28 19:49 38.43249 -85.82950 5408 ft 241 kts 169°
2026-04-28 19:49 38.41621 -85.82428 5089 ft 242 kts 170°
2026-04-28 19:50 38.38425 -85.81400 4414 ft 229 kts 169°
2026-04-28 19:50 38.36911 -85.80902 4121 ft 219 kts 169°
2026-04-28 19:50 38.35472 -85.80428 3828 ft 209 kts 170°
2026-04-28 19:51 38.34111 -85.79976 3542 ft 195 kts 171°
2026-04-28 19:51 38.32834 -85.79554 3327 ft 187 kts 171°
2026-04-28 19:51 38.31575 -85.79142 3113 ft 188 kts 170°
2026-04-28 19:51 38.30307 -85.78724 2898 ft 188 kts 171°
2026-04-28 19:52 38.29069 -85.78313 2628 ft 179 kts 170°
2026-04-28 19:52 38.27903 -85.77922 2378 ft 168 kts 172°
2026-04-28 19:52 38.26784 -85.77553 2177 ft 165 kts 172°
2026-04-28 19:52 38.25664 -85.77188 1987 ft 166 kts 170°
2026-04-28 19:53 38.24554 -85.76815 1763 ft 164 kts 171°
2026-04-28 19:53 38.23452 -85.76450 1545 ft 161 kts 171°
2026-04-28 19:53 38.22366 -85.76092 1327 ft 162 kts 168°
2026-04-28 19:53 38.21283 -85.75731 1100 ft 161 kts 169°
2026-04-28 19:54 38.20190 -85.75370 899 ft 163 kts 169°
2026-04-28 19:54 38.19097 -85.75004 650 ft 163 kts 170°
2026-04-28 19:54 38.17999 -85.74642 499 ft 158 kts 169°
2026-04-28 19:54 38.17118 -85.74354 486 ft 99 kts 165°
2026-04-28 19:55 38.16659 -85.74202 489 ft 47 kts 165°
2026-04-28 19:55 38.16385 -85.74111 485 ft 24 kts 165°
2026-04-28 19:55 38.16340 -85.74039 492 ft 11 kts 93°
2026-04-28 19:55 38.16367 -85.73975 486 ft 9 kts
2026-04-28 19:56 38.16433 -85.73970 490 ft 10 kts 355°
2026-04-28 19:56 38.16509 -85.73993 486 ft 12 kts 345°
2026-04-28 19:56 38.16593 -85.74022 486 ft 13 kts 345°
2026-04-28 19:56 38.16688 -85.74054 487 ft 15 kts 346°
2026-04-28 19:57 38.16802 -85.74090 490 ft 18 kts 346°
2026-04-28 19:57 38.16935 -85.74132 489 ft 21 kts 346°
2026-04-28 19:57 38.17081 -85.74180 485 ft 23 kts 345°
2026-04-28 19:57 38.17236 -85.74232 488 ft 24 kts 345°
2026-04-28 19:58 38.17407 -85.74289 491 ft 26 kts 345°
2026-04-28 19:58 38.17582 -85.74346 487 ft 27 kts 345°
2026-04-28 19:58 38.17768 -85.74408 491 ft 28 kts 345°
2026-04-28 19:58 38.17954 -85.74469 494 ft 25 kts 345°
2026-04-28 19:59 38.18044 -85.74441 489 ft 14 kts 58°
2026-04-28 19:59 38.18086 -85.74312 491 ft 15 kts 58°
2026-04-28 19:59 38.18174 -85.74310 490 ft 13 kts 338°
2026-04-28 19:59 38.18194 -85.74322 497 ft 0 kts 333°
2026-04-28 20:01 38.18198 -85.74325 497 ft 3 kts 333°
2026-04-28 20:01 38.18227 -85.74351 498 ft 4 kts 291°
2026-04-28 20:01 38.18212 -85.74398 501 ft 8 kts 238°
2026-04-28 20:02 38.18210 -85.74454 497 ft 3 kts 328°
2026-04-28 20:02 38.18223 -85.74450 488 ft 0 kts 25°